Location: Newark
(49.9833°N, 3.7472°E)
Time: 14:41:46
(UTC+00:00)

N. Korean satellite - Pass Details

Date: 28 September 2019
Orbit: 455 x 508 km, 97.2° (Epoch: 14 October)

Event Time Altitude Azimuth Distance (km) Brightness Sun altitude
Rises 04:42:03 0° 30° (NNE) 2,485 10.8 -10.1°
Reaches altitude 10° 04:44:54 10° 57° (ENE) 1,608 10.4 -9.6°
Maximum altitude 04:46:47 14° 90° (E) 1,379 10.3 -9.3°
Drops below altitude 10° 04:48:40 10° 124° (ESE) 1,607 10.0 -9.0°
Sets 04:51:31 0° 150° (SSE) 2,484 10.5 -8.6°
